Wind_Speed
5 5 6 6 6 5 4 3 3 3 3 2 1 1 2 3 5 6 7 7 8 8 8 8 9 9 8 8 8 8 8 7 7 6 5 5 4 4 3 3 3 3 3
6 6 7 7 7 6 5 5 4 4 4 3 3 3 3 3 4 5 6 7 7 8 8 8 8 8 8 8 8 8 7 7 7 5 5 4 3 3 2 2 2 2 3
8 8 8 8 8 7 6 6 6 5 5 5 4 4 4 4 5 5 5 6 7 7 8 8 8 8 8 7 7 7 7 6 6 5 4 4 3 2 2 2 1 2 2
10 10 10 9 9 8 8 7 7 7 7 6 6 5 5 6 5 5 5 6 6 7 7 8 8 8 8 7 6 6 6 6 6 5 4 3 3 2 2 2 1 2 2
12 11 11 11 10 9 9 9 9 9 8 8 7 7 7 7 7 6 6 7 7 7 8 8 8 8 8 7 7 6 6 6 6 5 4 4 3 3 2 2 2 1 2
14 13 13 12 11 11 11 11 10 10 10 9 9 8 8 8 8 8 8 8 8 8 8 8 8 8 8 8 7 7 7 6 6 6 5 5 4 3 3 2 2 1 1
16 15 14 13 13 13 13 13 12 12 11 11 11 10 10 9 9 9 9 9 9 10 10 10 9 9 9 9 9 9 8 8 7 7 7 6 5 4 3 3 2 2 1
18 17 15 15 15 14 14 15 14 13 13 13 12 12 11 11 11 11 11 11 11 11 11 11 11 10 10 10 10 10 9 9 9 8 8 7 7 5 5 4 4 3 2
18 17 16 16 16 15 14 15 16 15 15 15 14 13 13 13 13 13 13 13 13 14 13 13 13 12 12 12 12 11 11 10 10 10 9 9 8 7 6 6 5 5 4
18 17 17 16 17 17 16 16 17 16 16 16 15 15 15 15 14 15 15 15 15 15 15 15 14 14 14 13 13 13 13 12 11 11 11 10 10 9 8 8 7 6 6
18 17 17 17 17 18 18 17 18 17 17 17 17 17 16 16 16 16 16 16 16 16 16 16 16 16 15 15 14 14 15 14 14 13 12 12 11 10 10 10 9 8 8
17 16 18 18 19 20 20 19 19 18 18 18 18 18 17 17 17 17 18 18 18 17 17 17 17 17 17 17 16 16 16 16 15 14 14 13 12 12 12 12 12 11 10
17 18 18 19 20 22 22 21 19 19 19 18 18 18 18 18 18 18 18 19 19 19 19 19 19 19 19 18 17 18 18 18 17 16 15 15 15 14 14 13 13 13 13
17 17 18 19 20 20 23 23 22 21 20 19 19 19 20 20 20 20 20 19 20 20 20 20 20 20 20 19 18 18 18 18 18 18 17 17 17 16 16 15 15 15 15
16 17 17 16 17 17 19 21 21 21 21 21 20 21 21 21 21 22 22 21 21 21 21 21 21 21 20 20 20 19 18 18 20 20 20 19 19 18 18 17 17 17 16
15 15 15 14 15 16 19 20 22 22 22 21 22 22 23 23 22 22 22 22 22 22 22 22 22 22 22 22 22 21 20 20 20 21 21 21 21 20 20 20 19 19 18
16 16 16 15 15 17 19 21 24 24 23 23 23 23 22 22 23 22 22 23 23 23 23 24 24 24 23 23 23 23 22 21 20 21 22 22 22 22 22 21 21 21 20
16 16 16 14 15 17 19 21 23 24 24 24 24 23 23 24 24 24 23 24 25 24 25 25 26 25 25 24 23 23 23 22 22 21 21 21 22 22 22 22 22 22 21
16 15 14 14 15 16 17 20 20 22 24 24 24 24 24 25 25 25 24 25 25 25 25 26 26 26 26 25 25 24 23 23 23 23 22 23 23 23 23 23 23 22 22
16 14 13 14 15 16 17 18 20 21 22 24 24 24 24 25 24 25 24 24 26 26 26 26 26 27 27 26 27 26 24 24 23 23 23 23 24 25 25 24 24 24 23
15 14 14 14 14 15 17 17 18 20 21 23 24 24 24 24 24 24 24 25 25 25 26 26 27 27 27 28 27 26 25 25 25 25 25 24 24 26 26 26 24 25 25
14 14 16 15 15 15 15 16 18 19 20 20 21 22 22 22 23 23 24 25 25 25 26 26 26 27 27 27 27 27 26 26 26 27 26 26 25 25 26 26 26 26 27
14 14 14 15 16 16 16 17 18 18 18 19 20 20 21 22 23 23 24 25 26 27 27 27 27 27 28 28 27 28 28 27 27 28 28 27 27 27 26 26 28 28 27
14 14 14 14 15 16 17 18 19 18 19 19 19 20 21 22 23 24 25 25 26 27 27 28 27 28 28 29 29 29 29 29 29 28 28 29 28 28 28 28 29 29 29
15 15 15 15 16 17 17 18 18 19 19 20 20 22 22 23 24 25 26 26 27 27 28 28 28 28 29 30 30 30 30 30 30 29 29 30 30 29 29 29 29 29 30
17 17 17 17 17 17 18 19 19 20 21 21 22 23 23 24 24 25 25 26 26 27 28 27 28 28 29 30 30 31 31 31 31 30 30 30 31 31 30 30 30 31 31
Wind_Direction
294 291 286 276 271 263 248 229 207 193 189 202 242 304 333 340 345 348 348 347 349 352 354 355 355 356 357 359 1 3 4 7 11 16 21 26 29 34 45 62 80 94 110
290 285 283 276 266 259 248 238 228 220 220 228 246 277 298 314 328 335 338 338 341 345 348 353 355 354 353 354 356 357 359 359 1 7 10 14 20 31 49 65 81 93 108
287 284 278 274 262 254 248 244 240 236 233 236 245 265 281 295 308 316 323 326 333 339 342 345 350 349 347 345 346 349 351 351 350 352 356 357 359 7 42 52 74 87 97
288 282 274 267 260 254 250 247 246 246 243 245 251 262 273 284 292 297 304 313 321 330 334 336 339 340 338 336 334 337 341 339 336 337 341 342 340 349 20 36 50 75 82
284 277 266 263 260 255 253 251 250 249 247 250 256 261 268 276 279 283 291 299 309 318 323 327 327 327 326 325 323 323 325 325 324 324 324 326 325 335 356 15 28 58 68
278 272 263 257 255 252 251 249 248 248 248 251 254 257 262 268 272 277 285 292 299 306 310 313 315 314 314 313 312 309 309 312 313 313 311 311 312 317 330 349 360 17 41
276 269 263 257 256 251 247 246 245 247 249 250 254 257 260 265 270 276 282 288 292 296 302 305 305 305 305 306 306 302 297 301 303 306 305 302 303 303 307 315 323 328 337
282 274 268 260 254 253 247 244 244 245 248 250 254 256 259 262 267 273 279 284 286 289 293 297 299 297 296 297 300 299 298 294 296 299 299 299 298 295 294 295 299 296 300
282 273 265 262 250 246 244 243 245 245 248 251 253 255 258 261 266 272 276 280 282 283 285 289 291 293 291 290 291 292 291 292 291 292 295 292 290 286 286 282 285 279 274
280 271 266 260 248 243 242 241 241 243 245 249 252 253 257 260 265 270 274 276 279 281 281 283 286 286 287 287 285 286 286 286 285 284 285 286 284 277 278 274 272 273 270
277 267 258 259 252 245 242 238 238 241 246 249 251 254 256 259 263 267 271 273 275 276 278 280 281 282 282 283 283 282 280 279 280 278 279 279 278 272 270 269 266 265 266
276 265 260 259 252 244 241 239 237 241 246 248 251 254 256 259 262 266 269 270 270 271 273 276 279 279 279 280 279 279 277 273 273 273 273 271 273 272 269 268 264 262 262
284 275 265 257 253 244 239 239 238 238 242 247 249 253 256 259 261 263 266 267 267 269 271 273 276 276 276 278 277 275 275 270 267 266 266 266 270 269 265 268 267 262 260
282 279 271 260 255 251 241 239 239 239 241 245 248 251 255 257 259 260 262 264 265 267 270 271 272 272 272 274 275 272 270 268 264 263 263 264 264 266 265 266 267 262 260
282 278 275 267 265 260 245 241 240 241 243 244 247 251 253 256 257 259 260 262 264 267 268 268 270 269 270 270 271 270 267 268 266 262 261 261 261 262 263 265 264 262 261
280 280 280 274 271 264 253 246 241 239 241 244 247 250 253 256 258 260 262 261 263 264 265 267 269 270 270 270 269 269 267 267 266 262 260 260 260 261 262 264 264 263 262
284 285 282 274 271 263 255 247 243 240 241 244 247 250 253 256 258 261 262 262 263 265 265 267 267 270 270 270 269 268 266 266 267 265 262 261 260 261 261 263 263 261 260
285 282 275 270 266 263 256 249 243 241 241 244 248 250 254 257 259 262 263 262 263 265 266 267 267 269 270 270 269 267 265 263 265 264 263 262 261 260 261 263 262 260 261
285 277 267 267 267 263 252 243 243 246 246 246 248 251 255 257 260 262 262 263 263 265 267 267 267 267 268 267 267 267 268 266 264 264 264 263 260 258 262 263 261 259 261
283 277 271 271 267 259 253 250 249 250 249 249 249 251 254 257 258 260 262 265 266 266 267 267 267 266 265 265 267 267 267 265 265 264 264 263 260 258 260 260 260 259 260
285 279 277 273 267 262 255 254 252 252 252 250 249 252 259 261 261 262 265 266 266 266 267 268 267 265 265 264 265 265 265 265 264 265 264 262 262 260 258 259 259 258 259
278 278 273 269 265 261 258 256 259 260 258 259 256 258 260 263 263 265 266 266 264 265 267 267 266 265 265 264 264 264 264 264 265 265 265 264 263 261 257 258 257 258 258
274 277 275 268 264 265 265 265 265 265 267 266 264 264 263 266 266 266 266 266 265 265 266 267 268 265 265 265 264 263 263 263 265 266 265 263 262 262 261 260 257 258 258
276 278 273 270 267 265 267 269 269 271 272 271 269 268 270 270 269 268 269 267 266 265 266 267 267 265 263 264 264 264 264 264 265 264 264 262 262 262 262 261 257 258 258
275 278 276 273 272 272 273 273 273 274 276 275 274 273 271 270 270 270 270 269 269 269 268 268 268 267 264 264 265 265 265 264 265 264 263 263 262 262 261 259 257 258 257
275 277 278 277 277 278 277 277 276 276 277 278 276 275 273 272 271 270 271 270 270 270 270 270 270 270 267 265 265 266 266 265 264 265 264 262 261 262 262 260 258 257 258
Height
5894 5894 5895 5895 5896 5896 5896 5897 5898 5899 5900 5900 5901 5902 5902 5903 5903 5903 5903 5903 5904 5904 5904 5904 5904 5903 5903 5902 5902 5901 5901 5900 5900 5899 5899 5899 5899 5899 5898 5898 5898 5898 5898
5893 5893 5894 5894 5895 5895 5895 5897 5898 5899 5900 5901 5901 5902 5902 5903 5903 5903 5904 5904 5904 5904 5904 5904 5904 5903 5903 5903 5902 5902 5901 5901 5900 5900 5900 5900 5899 5899 5899 5899 5899 5899 5899
5892 5892 5893 5893 5894 5894 5895 5895 5897 5898 5899 5900 5901 5902 5902 5903 5903 5903 5904 5904 5904 5904 5904 5904 5904 5903 5903 5903 5903 5902 5902 5901 5901 5901 5900 5900 5900 5900 5900 5900 5900 5899 5899
5890 5891 5892 5892 5893 5893 5894 5894 5896 5897 5898 5899 5900 5901 5902 5902 5902 5903 5903 5903 5904 5904 5904 5904 5904 5904 5903 5903 5903 5902 5902 5901 5901 5901 5901 5901 5901 5900 5900 5900 5900 5900 5899
5888 5889 5890 5891 5891 5892 5893 5893 5894 5895 5896 5898 5899 5900 5900 5901 5901 5902 5902 5903 5903 5903 5904 5904 5904 5903 5903 5903 5903 5902 5902 5902 5901 5901 5901 5901 5901 5900 5900 5900 5900 5900 5899
5886 5886 5888 5888 5889 5890 5891 5892 5893 5894 5895 5896 5897 5898 5899 5899 5900 5901 5901 5901 5902 5902 5903 5903 5903 5903 5902 5902 5902 5902 5902 5902 5901 5901 5901 5900 5900 5900 5900 5900 5899 5899 5899
5882 5884 5885 5886 5887 5887 5888 5890 5891 5892 5893 5894 5895 5896 5897 5897 5898 5899 5900 5900 5900 5901 5901 5901 5902 5901 5901 5901 5901 5901 5901 5901 5901 5900 5900 5900 5900 5899 5899 5899 5899 5899 5899
5880 5882 5883 5883 5884 5885 5886 5887 5888 5889 5891 5892 5893 5893 5894 5895 5896 5897 5898 5898 5898 5899 5899 5899 5900 5900 5900 5900 5900 5900 5900 5899 5899 5899 5899 5899 5899 5898 5898 5898 5898 5899 5899
5878 5879 5879 5879 5880 5882 5883 5884 5886 5887 5888 5889 5890 5891 5892 5893 5894 5895 5895 5896 5896 5897 5897 5897 5897 5898 5898 5898 5898 5898 5898 5898 5898 5898 5897 5897 5897 5897 5897 5897 5897 5898 5898
5874 5875 5875 5875 5877 5878 5880 5881 5883 5884 5885 5886 5887 5888 5889 5891 5891 5892 5893 5893 5894 5894 5894 5894 5895 5895 5895 5895 5895 5895 5896 5896 5896 5896 5896 5896 5895 5896 5896 5896 5896 5897 5897
5871 5871 5871 5872 5874 5875 5876 5877 5879 5881 5882 5883 5885 5886 5887 5888 5889 5889 5890 5891 5891 5891 5892 5892 5892 5892 5892 5892 5893 5893 5893 5893 5893 5893 5893 5894 5893 5893 5894 5894 5894 5895 5895
5867 5867 5868 5867 5869 5871 5873 5874 5876 5877 5879 5880 5882 5883 5884 5885 5885 5886 5887 5887 5888 5888 5888 5889 5889 5889 5889 5889 5890 5890 5890 5890 5890 5890 5891 5891 5891 5891 5891 5892 5892 5893 5893
5864 5864 5864 5865 5866 5867 5868 5870 5872 5873 5875 5876 5878 5879 5881 5881 5882 5883 5883 5884 5884 5885 5885 5885 5886 5886 5886 5886 5886 5886 5886 5887 5887 5887 5888 5888 5888 5889 5889 5889 5890 5890 5891
5861 5861 5860 5861 5861 5862 5864 5866 5868 5869 5871 5872 5874 5875 5876 5877 5878 5879 5879 5880 5880 5881 5881 5881 5882 5882 5882 5882 5882 5882 5882 5883 5883 5884 5884 5885 5885 5885 5886 5886 5887 5887 5888
5859 5858 5857 5858 5859 5859 5860 5862 5864 5865 5867 5868 5869 5870 5872 5873 5873 5874 5875 5875 5876 5876 5877 5877 5877 5877 5878 5878 5878 5878 5878 5879 5879 5880 5880 5881 5881 5882 5882 5883 5883 5883 5884
5855 5854 5854 5855 5855 5856 5856 5858 5859 5861 5862 5864 5864 5865 5867 5868 5869 5870 5870 5871 5871 5871 5872 5872 5872 5872 5873 5873 5873 5874 5874 5874 5874 5875 5876 5877 5877 5878 5878 5879 5879 5880 5880
5851 5850 5851 5851 5852 5852 5852 5853 5854 5855 5857 5858 5859 5861 5862 5863 5864 5865 5865 5866 5866 5866 5867 5867 5867 5867 5868 5868 5868 5868 5869 5869 5870 5871 5871 5872 5873 5873 5874 5875 5875 5875 5876
5848 5847 5847 5847 5847 5848 5847 5848 5849 5851 5852 5853 5855 5856 5857 5858 5859 5860 5860 5861 5861 5861 5862 5862 5862 5862 5863 5863 5863 5863 5864 5864 5865 5866 5866 5867 5868 5868 5869 5870 5870 5871 5871
5844 5843 5843 5843 5843 5843 5843 5844 5845 5846 5847 5848 5850 5851 5852 5852 5853 5854 5855 5855 5855 5856 5856 5856 5856 5857 5857 5858 5858 5858 5858 5859 5860 5861 5861 5862 5862 5863 5864 5865 5865 5866 5866
5840 5839 5839 5839 5839 5839 5840 5840 5841 5842 5843 5844 5844 5845 5847 5847 5848 5849 5849 5849 5849 5850 5850 5850 5850 5851 5852 5852 5853 5853 5853 5854 5855 5856 5856 5857 5857 5858 5858 5859 5860 5861 5861
5836 5835 5835 5835 5836 5836 5836 5837 5837 5838 5838 5838 5839 5840 5841 5842 5842 5843 5843 5843 5843 5844 5844 5844 5844 5845 5846 5846 5847 5847 5847 5848 5849 5850 5851 5851 5852 5852 5853 5854 5854 5855 5856
5833 5832 5832 5832 5832 5832 5832 5833 5834 5834 5834 5834 5834 5835 5836 5836 5837 5837 5837 5837 5837 5838 5838 5838 5838 5838 5839 5840 5840 5841 5842 5843 5843 5844 5844 5845 5846 5846 5847 5848 5848 5849 5850
5829 5829 5829 5829 5828 5828 5829 5829 5829 5829 5829 5829 5829 5830 5830 5830 5831 5831 5831 5831 5831 5831 5831 5832 5832 5832 5833 5833 5834 5835 5836 5837 5837 5838 5838 5839 5839 5840 5840 5841 5842 5842 5843
5825 5825 5825 5825 5825 5825 5825 5825 5825 5824 5824 5824 5824 5824 5824 5824 5824 5824 5824 5824 5824 5824 5824 5825 5825 5825 5826 5826 5827 5828 5829 5829 5830 5831 5831 5832 5833 5833 5834 5834 5835 5836 5837
5822 5822 5821 5821 5821 5821 5820 5820 5820 5820 5819 5819 5818 5818 5818 5818 5818 5818 5818 5818 5817 5817 5817 5818 5818 5818 5818 5819 5820 5820 5821 5822 5823 5823 5824 5825 5825 5826 5827 5827 5828 5829 5829
5817 5817 5817 5816 5816 5815 5815 5814 5814 5814 5813 5813 5812 5811 5811 5811 5811 5811 5810 5810 5810 5810 5810 5810 5810 5811 5811 5812 5812 5813 5813 5814 5815 5816 5817 5817 5818 5819 5819 5820 5821 5821 5822